Regional Weather Roundup
Issued by NWS Kansas City/Pleasant Hill, MO

Home | Current Version | Previous Version | Text Only | Print | Product List | Glossary On
Versions: 1 2 3 4 5 6 7 8 9 10 11 12 13 14 15 16 17 18 19 20 21 22 23 24 25 26 27 28
000
ASUS43 KEAX 260710
RWREAX

WEATHER ROUNDUP FOR EASTERN KANSAS AND NORTHWEST MISSOURI
NATIONAL WEATHER SERVICE KANSAS CITY/PLEASANT HILL MO
200 AM CDT THU APR 26 2018

KSZ040-057-103>105-MOZ028-029-037-043-260800-
...KANSAS CITY METROPOLITAN AREA...

CITY           SKY/WX    TMP DP  RH WIND       PRES   REMARKS
K.C. INTL      CLEAR     43  42  97 W5        30.00F
K.C. DOWNTOWN  PTCLDY    45  43  93 CALM      29.99F
LEES SUMMIT    PTCLDY    43  43 100 NW5       29.99F FOG
OLATHE - IXD   FOG       43  42  97 W3        30.00F VSB 1/4
OLATHE - OJC   CLEAR     44  44 100 NW3       29.99F FOG
LAWRENCE       FOG       38  38 100 NW5       30.01F VSB 1/4 WCI  34

$$

MOZ001>008-011>017-020>025-030>033-038>040-044>046-053-054-260800-
...NORTHERN AND CENTRAL MISSOURI...

CITY           SKY/WX    TMP DP  RH WIND       PRES   REMARKS
ST. JOSEPH     CLEAR     38  37  97 CALM      30.00F
MOSBY          FOG       39  37  93 CALM      30.00F VSB 1/2
WARRENSBURG    FOG       45  43  93 CALM      29.99F VSB 1/4
WHITEMAN AFB   MOCLDY    46  45  98 NW3       29.94F FOG
CLINTON        CLOUDY    48  48 100 CALM      29.98F FOG
SEDALIA        CLOUDY    49  49 100 NW3       29.98F FOG
WARSAW         NOT AVBL
CHILLICOTHE      N/A     40  37  89 CALM      30.00S
KIRKSVILLE     FOG       34  34 100 W5        29.97F VSB 1/4 WCI  30

$$

MOZ041-047>049-056>058-063>065-088>090-097-260800-
...EASTERN AND SOUTHERN MISSOURI...

CITY           SKY/WX    TMP DP  RH WIND       PRES   REMARKS
ST. LOUIS INTL LGT RAIN  56  45  66 N3        29.93F
SPIRIT OF STL  LGT RAIN  53  49  86 SW3       29.93F
COLUMBIA       CLOUDY    50  50 100 NW5       29.97F FOG
JEFFERSON CITY CLOUDY    50  49  96 NW3       29.97F FOG
ROLLA          CLOUDY    48  47  96 N6        29.95F FOG
OSAGE BEACH    CLOUDY    49  48  97 N5        29.98F FOG
SPRINGFIELD    CLOUDY    50  47  89 N9        29.96S
BRANSON        LGT RAIN  50  50 100 CALM      29.95S
JOPLIN         CLOUDY    50  49  96 NE6       29.98F
WEST PLAINS    CLOUDY    51  48  89 N9        29.93F

$$

IAZ060-094-KSZ022-034>040-054-083-096-NEZ052-066-093-260800-
...KANSAS...SOUTHEAST NEBRASKA AND IOWA...

CITY           SKY/WX    TMP DP  RH WIND       PRES   REMARKS
TOPEKA         CLEAR     42  42 100 CALM      30.01F FOG
MANHATTAN      CLOUDY    38  37  97 CALM      30.03S FOG
EMPORIA        CLEAR     41  40  96 W5        30.02F FOG
CHANUTE        CLOUDY    50  47  89 N7        30.01F
WICHITA        PTCLDY    38  38 100 W3        30.03F FOG
OMAHA          CLOUDY    44  37  76 SE6       29.98F
LINCOLN        PTCLDY    44  34  67 CALM      30.00F
FALLS CITY     CLEAR     39  34  82 NW3       30.00S
LAMONI         CLEAR     40  36  86 W7        29.97F
DES MOINES     PTCLDY    47  31  53 CALM      29.98S

$$





USA.gov is the U.S. government's official web portal to all federal, state and local government web resources and services.